Startseite
Über Mich
AHP4
Galerie
Sehschlangen
Tourenbuch
Bookmarks
Elektronik
Bewertung
Geschichten
[Tagesmessung] [Jahreswerte] [Information]

Messwerte vom 01.07.2022

Die letzten Messwerte von 23:58:49 Uhr:
KategorieMesswert
Temperatur [°C]11
Luftdruck [mBar]1006
Sonneneinstrahlung0
Wind [km/h]0 aus Ost
Niederschlag [l/m²]0
rel.Luftfeucht.96.6%
CO2 [ppm]437

Diagramme
Messwerte vom 01.07.2022
Tagesaggregation
KategorieMinimumMaximumSchnittSumme
Temperatur [°C]112516.9854
Luftdruck [mBar]9931006999.9354
Sonneneinstrahlung247126.2729
Wind [km/h]16
rF [%]57.596.690.59
Niederschlag [l/m²]5.9225
CO2 [ppm]401777570.4
Einordnung alsVegetationstag
Sommertag

Messungen an benachbarten Tagen: Zur Jahresaggregation 2022
Tabelle aller Messwerte
UhrzeitTemperatur [°C]Luftdruck [mBar]SonneWind [km/h]RichtungRegen [l/m²]rF [%]CO2 [ppm]
00:01:49 21 994 0 0 NW 0 73.8 615
00:04:48 21 994 0 0 NW 0 73.9 612
00:07:48 21 994 0 0 NW 0 73.9 614
00:10:48 21 994 0 0 NW 0 74.3 610
00:13:49 21 994 0 0 NW 0 75.2 609
00:16:47 21 994 0 0 NW 0 76.1 603
00:19:48 21 994 0 0 NW 0 76.5 609
00:22:47 21 994 0 0 O 0 76.6 611
00:25:49 21 994 0 0 NW 0 76.6 618
00:28:48 21 994 0 1 NW 0 76.3 612
00:31:46 21 994 0 1 N 0 76 609
00:34:47 21 994 0 0 N 0 75.7 619
00:37:46 21 994 0 0 N 0 75.5 626
00:40:49 21 994 0 1 NW 0 75.7 629
00:43:48 21 994 0 0 NW 0 76.1 627
00:46:46 21 994 0 0 N 0 76.1 626
00:49:45 21 994 0 0 O 0 76.5 632
00:52:46 21 994 0 0 O 0 76.7 638
00:55:47 21 994 0 0 N 0 76.4 638
00:58:47 21 994 0 0 SO 0 76.9 629
01:01:48 21 993 0 0 NO 0 76.7 630
01:04:45 21 994 0 0 O 0 76.6 635
01:07:46 21 995 0 0 O 0 76.9 643
01:10:47 21 994 0 0 NO 0 77.9 644
01:13:48 21 994 0 0 SO 0 78.1 641
01:16:49 21 994 0 0 SO 0 79 651
01:19:47 21 994 0 0 SO 0 78.5 650
01:22:49 20 994 0 0 SO 0 78.5 653
01:25:47 20 994 0 0 NW 0 79 651
01:28:55 20 994 0 0 NW 0 79.6 645
01:31:49 20 994 0 0 NW 0 80.3 645
01:34:50 20 994 0 0 NW 0 81 647
01:37:47 20 994 0 0 NW 0 80.9 649
01:40:49 20 994 0 0 NW 0 81.6 643
01:43:51 20 994 0 0 NW 0 82.2 646
01:46:47 20 994 0 0 NO 0 82.2 641
01:49:46 20 994 0 1 N 0 82.5 635
01:52:47 20 994 0 0 N 0 82.8 641
01:55:48 20 994 0 0 N 0 82.7 648
01:58:46 20 995 0 0 SO 0 82.4 657
02:01:46 20 994 0 1 SW 0 83.7 661
02:04:47 20 995 0 1 SO 0 83.9 661
02:07:47 20 995 0 0 S 0 83.3 674
02:10:50 20 995 0 0 SO 0 83.4 680
02:13:47 20 995 0 0 SW 0 83.6 690
02:16:49 20 994 0 0 SW 0 83.8 682
02:19:48 20 995 0 0 S 0 83 688
02:22:46 20 995 0 5 S 0 83.1 681
02:25:49 20 995 0 1 W 0 82.6 685
02:28:46 20 995 0 0 S 0 82.5 682
02:31:47 21 995 0 1 SO 0 83.3 681
02:34:49 21 995 0 0 NW 0 82.7 689
02:37:47 21 995 0 2 N 0 82.5 700
02:40:49 20 995 0 1 SO 0 82.7 710
02:43:47 20 995 0 0 S 0 82.8 702
02:46:48 20 995 0 0 S 0 82.7 700
02:49:49 20 995 0 0 S 0 82.7 697
02:52:47 20 995 0 1 S 0 82.5 703
02:55:48 21 995 0 2 SO 0 82.9 712
02:58:50 21 995 0 3 NO 0 83.5 710
03:01:47 21 995 0 1 W 0 83.1 715
03:04:47 20 995 0 0 SW 0 82.7 718
03:07:48 20 995 0 2 SO 0 82.5 717
03:10:49 20 995 0 0 S 0 82.2 713
03:13:46 20 995 0 5 S 0 82.7 707
03:16:47 20 995 0 1 SW 0 83.2 714
03:19:49 20 995 0 3 S 0 83.3 710
03:22:47 20 995 0 3 SO 0 83.4 712
03:25:48 20 995 0 0 SW 0 83.6 715
03:28:47 20 995 0 2 SW 0 83.5 719
03:31:48 20 996 0 1 SW 0 83.7 723
03:34:47 20 995 0 0 SW 0 84.1 721
03:37:47 20 995 0 0 NW 0 84.4 723
03:40:45 20 995 0 0 O 0 84.4 731
03:43:48 20 996 0 0 S 0 84.6 732
03:46:47 19 995 0 2 SW 0 85 732
03:49:47 19 995 0 3 N 0 86.6 726
03:52:45 19 995 0 3 W 0 87.1 720
03:55:48 19 995 0 0 O 0 87.8 718
03:58:45 19 996 0 1 N 0 87.9 725
04:01:47 19 995 0 1 SO 0 87.9 723
04:04:48 19 995 0 0 O 0 88 728
04:07:48 19 996 0 4 W 0 88 727
04:10:48 19 995 0 0 SW 0 88.1 729
04:13:46 19 996 0 1 SW 0 87.6 734
04:16:47 19 995 0 1 SW 0 88 738
04:19:47 19 996 0 3 SW 0 87.9 735
04:22:46 19 996 0 2 S 0 88.1 733
04:25:49 19 996 0 1 SW 0 88.2 733
04:28:46 19 996 0 2 S 0 88.5 744
04:31:47 19 996 0 2 NO 0 88.3 738
04:34:48 19 996 0 0 SO 0 88.4 732
04:37:48 19 997 0 2 W 0.2575 89.9 726
04:40:46 19 996 0 0 W 0.515 91 730
04:43:47 18 996 0 0 SW 0.2575 92.1 730
04:46:47 18 996 0 7 S 0.2575 94.4 730
04:49:49 18 997 3 2 S 0.2575 96.5 729
04:52:46 18 997 3 1 SO 0.2575 96.6 723
04:55:47 18 998 4 5 SO 0 96.6 730
04:58:46 17 998 5 0 S 0 96.6 729
05:01:47 17 997 8 1 NO 0 96.6 732
05:04:47 17 997 10 3 W 0.2575 96.6 733
05:07:46 17 997 13 5 NW 0 96.6 743
05:10:47 17 996 13 5 W 0 96.6 743
05:13:48 17 997 14 0 NW 0 96.6 746
05:16:46 17 996 10 2 NO 0 96.6 752
05:19:47 17 997 11 3 NW 0 96.6 751
05:22:47 17 997 12 1 SW 0 96.6 744
05:25:49 17 997 16 1 N 0 96.6 747
05:28:47 17 997 24 2 NW 0.2575 96.6 745
05:31:48 17 996 49 1 W 0 96.6 743
05:34:48 17 997 62 1 SW 0 96.6 735
05:37:48 17 997 47 10 S 0 96.6 729
05:40:49 17 998 80 3 NO 0 96.6 726
05:43:46 17 997 74 3 O 0 96.6 723
05:46:47 17 997 103 2 SW 0.2575 96.6 715
05:49:48 17 996 94 4 O 0 96.6 708
05:52:48 16 997 92 0 SW 0 96.6 710
05:55:47 16 997 90 1 W 0 96.6 707
05:58:46 16 997 89 2 W 0 96.6 702
06:01:48 16 997 87 2 SW 0 96.6 703
06:04:48 16 998 72 1 S 0 96.6 696
06:07:51 16 997 84 2 SO 0 96.6 685
06:10:46 16 997 86 3 O 0 96.6 679
06:13:47 16 997 91 3 SW 0 96.6 679
06:16:49 16 997 84 2 SO 0 96.6 678
06:19:48 16 997 92 3 S 0 96.6 665
06:22:48 16 997 95 1 SW 0 96.6 658
06:25:47 16 997 116 3 NO 0 96.6 656
06:28:50 16 997 143 3 SW 0 96.6 653
06:31:49 16 997 148 2 NW 0 96.6 647
06:34:47 16 998 103 2 S 0 96.6 641
06:37:47 16 996 106 0 W 0 96.6 635
06:40:47 16 998 127 2 W 0 96.6 635
06:43:49 16 997 131 5 SW 0 96.6 627
06:46:47 16 998 116 0 N 0 96.6 621
06:49:47 16 998 109 1 N 0 96.6 615
06:52:49 16 997 92 2 SO 0 96.6 609
06:55:48 16 998 114 1 SW 0 96.6 513
06:58:47 16 998 128 0 S 0 96.6 407
07:01:50 16 998 104 2 S 0 96.6 404
07:04:51 16 998 106 1 S 0 96.6 407
07:07:48 16 998 118 0 N 0 96.6 403
07:10:49 16 998 119 2 SW 0 96.6 404
07:13:48 16 998 127 2 W 0 96.6 407
07:16:48 15 999 141 2 S 0 96.6 407
07:19:48 15 998 147 3 S 0 96.6 405
07:22:49 15 998 151 12 NW 0 96.6 404
07:25:50 15 999 139 2 SW 0 96.6 404
07:28:48 15 998 131 0 SO 0 96.6 406
07:31:50 15 998 127 2 SO 0.2575 96.6 404
07:34:50 15 998 141 2 SO 0 96.6 401
07:37:49 15 998 147 1 SW 0 96.6 405
07:40:48 15 999 155 0 S 0 96.6 405
07:43:48 15 998 155 3 NW 0 96.6 407
07:46:47 15 998 156 1 S 0 96.6 404
07:49:48 15 998 164 3 SW 0 96.6 404
07:52:47 15 998 172 1 NW 0 96.6 407
07:55:48 15 998 169 2 SW 0 96.6 404
07:58:49 15 998 173 2 NW 0 96.6 407
08:01:50 15 998 175 1 SW 0 96.6 403
08:04:48 15 998 171 4 O 0 96.6 402
08:07:50 15 998 166 0 0 96.6 407
08:10:48 15 998 170 2 SO 0 96.6 407
08:13:50 15 998 180 1 S 0 96.6 416
08:16:45 15 999 194 4 W 0 96.6 418
08:19:49 15 998 196 1 NW 0 96.6 425
08:22:47 15 999 201 4 W 0 96.6 430
08:25:49 15 999 193 2 NO 0 96.6 437
08:28:47 15 998 199 0 S 0 96.6 583
08:31:48 16 999 216 1 SW 0 96.6 588
08:34:48 16 998 211 4 W 0 96.6 586
08:37:49 16 998 196 2 S 0 96.6 593
08:40:51 16 999 193 1 O 0 96.6 594
08:43:48 16 999 198 4 N 0 96.6 594
08:46:51 16 998 188 2 NW 0 96.6 598
08:49:50 16 999 167 0 NW 0 96.6 608
08:52:50 16 999 176 2 NW 0 96.6 614
08:55:48 16 999 177 3 W 0 96.6 615
08:58:48 16 999 186 0 O 0 96.6 612
09:01:50 16 999 187 1 NO 0 96.6 618
09:04:49 16 998 196 2 W 0 96.6 594
09:07:50 16 998 196 0 S 0 96.6 594
09:10:50 16 999 182 0 NO 0 96.6 586
09:13:52 16 998 186 2 NW 0 96.6 590
09:16:46 16 999 193 2 W 0 96.6 588
09:19:48 16 999 196 2 SW 0 96.6 591
09:22:47 16 998 198 2 S 0 96.6 598
09:25:47 16 999 191 3 W 0 96.6 597
09:28:47 16 999 186 1 S 0 96.6 615
09:31:50 16 999 178 1 W 0 96.6 620
09:34:48 16 999 180 1 SW 0 96.6 626
09:37:48 16 999 175 0 O 0 96.6 630
09:40:46 16 999 177 1 O 0 96.6 638
09:43:49 16 999 180 3 SO 0 96.6 641
09:46:51 16 998 177 0 O 0 96.6 644
09:49:49 15 999 178 0 SO 0 96.6 645
09:52:50 15 999 186 3 S 0 96.6 655
09:55:47 15 999 175 1 W 0 96.6 680
09:58:53 15 1000 168 4 SW 0 96.6 697
10:01:51 15 1000 175 0 S 0 96.6 695
10:04:47 15 1000 172 2 S 0 96.6 697
10:07:48 15 999 161 1 S 0 96.6 700
10:10:50 15 999 186 2 SO 0 96.6 700
10:13:48 15 999 181 3 SW 0 96.6 706
10:16:48 15 1000 199 4 SO 0 96.6 708
10:19:49 15 1000 174 1 SW 0 96.6 720
10:22:48 15 1000 190 6 SO 0.2575 96.6 719
10:25:49 15 1000 194 1 SW 0 96.6 715
10:28:49 15 1000 195 3 SW 0.2575 96.6 720
10:31:51 15 1000 197 0 W 0 96.6 731
10:34:49 15 999 206 0 SW 0 96.6 732
10:37:48 15 1001 205 1 W 0.2575 96.6 735
10:40:47 15 1000 205 2 W 0 96.6 740
10:43:48 15 1000 198 2 S 0 96.6 740
10:46:48 15 1000 191 2 W 0 96.6 750
10:49:46 15 1000 190 1 S 0 96.6 752
10:52:49 15 999 183 2 W 0 96.6 758
10:55:48 15 1000 169 0 W 0 96.6 747
10:58:47 15 1000 174 1 W 0 96.6 755
11:01:50 15 1001 189 3 NW 0 96.6 750
11:04:46 15 1000 197 0 W 0 96.6 753
11:07:51 15 1000 195 4 NW 0.2575 96.6 753
11:10:48 15 1000 197 1 N 0 96.6 748
11:13:50 15 999 202 0 NO 0 96.6 755
11:16:47 15 1001 202 0 W 0.2575 96.6 756
11:19:48 15 1000 201 0 SW 0 96.6 755
11:22:48 15 1000 203 1 SW 0 96.6 749
11:25:49 15 1001 204 2 W 0.2575 96.6 752
11:28:49 15 1001 202 0 W 0 96.6 753
11:31:47 15 1000 201 0 W 0 96.6 754
11:34:48 15 1002 194 0 N 0 96.6 750
11:37:48 15 1001 196 5 W 0.2575 96.6 760
11:40:51 15 1001 202 3 SW 0.2575 96.6 764
11:43:47 15 1001 210 1 S 0 96.6 760
11:46:48 15 1001 210 0 SO 0 96.6 766
11:49:46 15 1001 214 1 S 0.2575 96.6 754
11:52:48 15 1001 204 0 S 0.2575 96.6 759
11:55:47 15 1001 217 2 S 0 96.6 738
11:58:48 15 1001 219 5 W 0.2575 96.6 685
12:01:50 15 1001 219 0 NW 0 96.6 656
12:04:49 15 1001 218 2 O 0 96.6 653
12:07:48 16 1001 216 1 N 0 96.6 667
12:10:49 16 1000 210 1 O 0 96.6 679
12:13:49 16 1001 215 0 SW 0 96.6 693
12:16:49 16 1001 217 4 SW 0.2575 96.6 702
12:19:48 16 1002 218 0 S 0 96.6 710
12:22:49 16 1001 217 3 N 0 96.6 714
12:25:48 16 1001 221 2 S 0 96.6 720
12:28:51 16 1001 217 3 NW 0 96.6 725
12:31:50 16 1002 212 1 SO 0 96.6 723
12:34:49 16 1002 212 2 W 0 96.6 727
12:37:46 16 1001 214 1 O 0 96.6 730
12:40:48 16 1002 221 1 SO 0 96.6 732
12:43:51 16 1002 217 0 S 0 96.6 738
12:46:49 17 1001 211 0 O 0 96.6 742
12:49:50 16 1002 200 16 SW 0 96.6 743
12:52:49 16 1001 201 0 W 0 96.6 752
12:55:49 16 1002 198 0 N 0 96.6 755
12:58:48 16 1002 200 1 O 0 96.6 759
13:01:48 16 1002 205 0 N 0 96.6 761
13:04:51 16 1002 212 2 NW 0 96.6 767
13:07:47 16 1002 209 1 S 0 96.6 771
13:10:48 16 1002 211 4 S 0 96.6 770
13:13:48 16 1002 214 0 N 0 96.6 758
13:16:48 16 1001 215 2 N 0 96.6 749
13:19:52 16 1002 212 1 SW 0 96.6 751
13:22:50 16 1002 209 0 W 0 96.6 764
13:25:48 16 1002 208 2 SO 0 96.6 767
13:28:48 16 1002 211 1 N 0 96.6 759
13:31:52 16 1002 214 3 NW 0 96.6 772
13:34:48 16 1002 215 1 NW 0 96.6 767
13:37:47 16 1002 220 0 N 0 96.6 772
13:40:48 16 1001 219 0 W 0 96.6 770
13:43:47 16 1002 211 3 SO 0 96.6 772
13:46:48 16 1001 212 0 SO 0 96.6 769
13:49:49 16 1002 214 2 W 0 96.6 774
13:52:49 16 1001 218 0 NO 0 96.6 777
13:55:46 17 1002 179 3 S 0 96.6 769
13:58:49 17 1002 181 0 N 0 96.6 507
14:01:49 17 1002 190 3 W 0 96.6 451
14:04:47 17 1002 191 1 O 0 96.6 424
14:07:47 17 1002 191 1 N 0 96.6 427
14:10:48 17 1002 193 7 O 0 96.3 416
14:13:48 18 1002 192 0 NW 0 96.3 418
14:16:47 18 1002 197 0 SO 0 96.3 413
14:19:46 18 1002 191 1 W 0 96.5 410
14:22:49 18 1002 193 0 S 0 95.3 407
14:25:48 18 1001 190 1 N 0 94.3 415
14:28:49 18 1002 191 0 NW 0 94 419
14:31:49 18 1002 190 0 NW 0 92.7 416
14:34:49 18 1002 194 1 W 0 92.9 407
14:37:49 18 1002 199 0 NW 0 93.2 407
14:40:50 19 1002 203 0 W 0 92.6 404
14:43:50 19 1002 206 0 NW 0 92.6 404
14:46:50 19 1002 204 0 NW 0 92.1 407
14:49:46 19 1001 207 3 NW 0 91.7 407
14:52:49 20 1002 226 0 NW 0 90.1 408
14:55:50 20 1002 188 1 NW 0 88.6 404
14:58:48 19 1002 177 1 W 0 89.6 404
15:01:48 19 1002 177 0 SO 0 90 408
15:04:48 19 1001 180 0 SO 0 89.9 410
15:07:49 19 1002 189 0 NW 0 90.3 404
15:10:47 19 1002 174 2 O 0 90.7 407
15:13:53 18 1002 178 2 SW 0 91.4 412
15:16:48 18 1002 172 3 S 0 91.6 433
15:19:49 18 1002 158 0 S 0 91.6 430
15:22:50 18 1002 157 1 S 0 91.6 422
15:25:49 18 1002 158 1 S 0 91.8 422
15:28:50 18 1002 163 1 SW 0 92.1 419
15:31:50 18 1001 158 0 W 0 92.6 422
15:34:51 17 1002 207 0 SO 0 92.3 427
15:37:48 17 1002 213 1 S 0 92.2 433
15:40:51 17 1002 211 1 SO 0 93.1 421
15:43:46 17 1002 205 0 S 0 93.5 416
15:46:49 17 1002 204 2 S 0 93.1 422
15:49:53 17 1002 199 0 NW 0 92.9 416
15:52:48 17 1002 193 1 O 0 93.5 404
15:55:50 17 1002 182 0 W 0 94.6 406
15:58:49 17 1002 195 0 SO 0 94.7 407
16:01:48 17 1002 195 0 SO 0 95.1 415
16:04:50 17 1003 207 1 SO 0 95.2 433
16:07:51 17 1002 211 0 S 0 95.7 454
16:10:50 17 1002 208 4 SO 0 95.9 471
16:13:49 17 1002 216 3 SW 0 95.7 489
16:16:50 17 1002 221 0 SO 0 95.1 492
16:19:49 17 1002 224 1 NW 0 95.1 486
16:22:49 17 1002 226 2 S 0 95 486
16:25:49 17 1002 226 0 W 0 94.6 494
16:28:49 18 1002 193 2 SO 0 94.1 497
16:31:47 18 1003 188 1 N 0 92.7 468
16:34:49 18 1002 220 2 NO 0 92.5 407
16:37:32 17 1002 219 6 W 0 85.5 448
16:41:18 18 1002 218 2 S 0 91.7 452
16:43:47 18 1003 225 5 W 0 92.1 453
16:46:49 18 1003 224 0 S 0 91.6 446
16:49:50 18 1002 221 4 S 0 92.4 446
16:52:49 18 1002 221 2 S 0 91.3 454
16:55:49 18 1002 218 4 N 0 90.9 466
16:58:50 18 1002 217 2 SW 0 90.4 469
17:01:48 18 1002 214 2 N 0 89.8 463
17:04:48 18 1002 207 0 O 0 90.3 463
17:07:47 18 1003 205 0 NO 0 91.2 459
17:10:47 18 1002 203 1 W 0 91.3 467
17:13:49 18 1003 201 1 NO 0 90.7 471
17:16:48 17 1002 208 0 SW 0 90.5 478
17:19:49 17 1002 214 0 W 0 90.8 480
17:22:48 17 1003 214 0 S 0 90.1 486
17:25:49 18 1003 218 1 S 0 90.4 486
17:28:51 18 1003 220 1 SO 0 90.7 481
17:31:50 18 1002 236 0 SO 0 90.3 478
17:34:47 18 1003 232 0 W 0 90.5 477
17:37:48 18 1003 220 0 O 0 89.9 480
17:40:49 19 1003 214 0 S 0 89.7 477
17:43:49 19 1002 206 2 O 0 89 477
17:46:49 18 1003 201 1 SW 0 86.8 477
17:49:50 18 1002 198 0 SW 0 86.6 485
17:52:49 18 1003 203 0 SW 0 87.3 483
17:55:47 18 1002 208 1 W 0 88.1 477
17:58:45 18 1003 210 1 S 0 88 474
18:01:48 18 1003 215 1 W 0 87.3 474
18:04:50 18 1002 225 3 SW 0 87.1 474
18:07:48 18 1002 221 0 S 0 86.6 471
18:10:49 18 1002 223 0 SW 0 87.7 471
18:13:49 18 1002 227 1 W 0 88.2 469
18:16:52 18 1003 227 0 O 0 88.2 466
18:19:50 18 1003 223 0 S 0 87.5 462
18:22:47 18 1002 221 1 O 0 87 466
18:25:49 18 1003 218 0 S 0 85.7 459
18:28:49 18 1003 221 0 SW 0 85.4 463
18:31:49 19 1002 235 0 SW 0 84.5 457
18:34:50 19 1002 242 0 SW 0 87.4 460
18:37:51 21 1002 247 0 SW 0 86.2 454
18:40:49 23 1002 242 5 W 0 76.2 456
18:43:49 23 1003 246 0 NW 0 75.2 451
18:46:47 24 1003 247 0 W 0 70.4 453
18:49:50 25 1003 247 3 W 0 66.5 451
18:52:48 25 1003 246 1 NW 0 65 445
18:55:49 24 1002 246 8 SO 0 64.5 444
18:58:48 22 1002 230 2 W 0 65.3 443
19:01:49 21 1002 237 7 W 0 66.8 446
19:04:50 20 1003 220 0 NW 0 71.7 451
19:07:50 20 1002 225 2 NO 0 74.4 451
19:10:32 20 1002 227 0 SW 0 57.5 450
19:13:50 20 1002 226 0 SO 0 76.8 451
19:16:50 19 1003 219 0 SW 0 76.6 448
19:19:51 19 1003 218 1 SW 0 77.8 454
19:22:47 19 1003 222 2 O 0 78.7 450
19:25:50 19 1003 223 4 SW 0 79.2 449
19:28:52 19 1003 235 3 SW 0 79.5 448
19:31:47 19 1003 222 2 W 0 79.5 451
19:34:49 19 1003 214 1 SO 0 78.8 453
19:37:46 19 1003 217 1 N 0 79.3 449
19:40:48 18 1003 206 1 SW 0 79.6 451
19:43:49 18 1003 211 0 SO 0 78.8 454
19:46:51 18 1003 204 0 SO 0 79.6 463
19:49:48 18 1003 201 0 NO 0 80 462
19:52:47 18 1003 203 0 S 0 80.8 460
19:55:49 17 1002 204 2 NW 0 81.6 454
19:58:48 17 1003 205 0 S 0 81.9 454
20:01:48 17 1003 204 0 O 0 82.1 451
20:04:50 17 1003 202 4 SW 0 82.5 452
20:07:50 17 1003 201 0 SW 0 82.7 445
20:10:50 17 1003 200 0 SO 0 83.1 445
20:13:47 17 1003 198 1 S 0 83.5 442
20:16:49 17 1003 194 0 S 0 83.5 443
20:19:48 17 1003 193 0 O 0 83.8 444
20:22:48 16 1003 193 0 S 0 84.5 442
20:25:49 16 1003 189 0 S 0 84.8 448
20:28:48 16 1002 191 0 S 0 85 448
20:31:47 16 1003 189 0 S 0 85.3 451
20:34:47 16 1003 190 0 S 0 85.8 451
20:37:49 16 1003 192 0 SO 0 86 455
20:40:49 16 1003 187 0 SO 0 86.3 445
20:43:49 16 1004 179 0 SO 0 86.7 439
20:46:49 16 1004 176 0 SO 0 86.9 436
20:49:51 16 1004 178 0 SO 0 87.5 441
20:52:48 15 1003 181 0 SO 0 87.5 442
20:55:51 15 1003 174 0 SO 0 87.7 443
20:58:51 15 1003 169 0 SO 0 87.9 439
21:01:47 15 1003 165 0 SO 0 88 440
21:04:52 15 1003 164 0 SO 0 88.5 440
21:07:52 15 1004 164 0 SO 0 89.3 442
21:10:47 15 1003 160 0 SO 0 89.4 431
21:13:50 15 1004 153 0 SO 0 89.7 431
21:16:50 15 1004 147 0 SO 0 89.8 441
21:19:49 15 1004 138 0 SO 0 89.9 451
21:22:47 15 1004 130 0 SO 0 90 445
21:25:49 15 1003 121 0 SO 0 90.1 436
21:28:50 15 1004 111 0 SO 0 90.1 439
21:31:49 14 1003 101 0 SO 0 90.2 442
21:34:49 14 1004 93 0 SO 0 90.2 444
21:37:49 14 1004 84 0 SO 0 90.3 439
21:40:47 14 1004 75 0 O 0 90.4 439
21:43:48 14 1004 66 0 O 0 90.4 436
21:46:45 14 1003 57 0 O 0 90.7 430
21:49:46 14 1004 49 1 S 0 91 427
21:52:49 14 1004 41 0 SO 0 91.5 430
21:55:48 14 1004 33 0 SO 0 91.5 434
21:58:47 14 1004 27 0 SO 0 91.5 433
22:01:49 14 1004 21 0 SO 0 91.7 427
22:04:47 14 1004 16 0 SO 0 91.8 424
22:07:50 13 1004 12 0 SO 0 92 428
22:10:48 13 1005 9 0 SO 0 92.2 427
22:13:47 13 1005 6 0 SO 0 92.4 430
22:16:47 13 1005 4 1 S 0 92.6 427
22:19:48 13 1005 3 0 SO 0 92.8 433
22:22:47 13 1005 0 2 SO 0 93 439
22:25:47 13 1004 0 3 SO 0 93.4 430
22:28:48 13 1005 0 0 SO 0 93.4 436
22:31:48 13 1005 0 2 SO 0 93.3 433
22:34:47 13 1004 0 0 SO 0 93.3 441
22:37:49 13 1004 0 0 SO 0 93.4 430
22:40:47 13 1006 0 0 SO 0 93.4 436
22:43:47 13 1005 0 0 SO 0 93.5 430
22:46:47 13 1005 0 0 SO 0 93.6 433
22:49:46 13 1005 0 0 W 0 93.7 427
22:52:48 13 1005 0 2 W 0 94.6 436
22:55:46 13 1005 0 0 O 0 95.2 430
22:58:45 13 1005 0 0 O 0 95.1 436
23:01:47 13 1006 0 0 N 0 95.5 436
23:04:45 13 1005 0 0 N 0 95.6 442
23:07:49 12 1005 0 0 O 0 96 434
23:10:48 12 1006 0 0 O 0 96.3 430
23:13:47 12 1006 0 0 O 0 96.5 430
23:16:46 12 1006 0 0 O 0 96.6 433
23:19:48 12 1006 0 0 O 0 96.6 440
23:22:48 12 1006 0 0 O 0 96.6 442
23:25:45 12 1005 0 0 O 0 96.6 442
23:28:47 12 1005 0 0 O 0 96.6 433
23:31:48 12 1005 0 0 O 0 96.6 433
23:34:47 12 1006 0 0 O 0 96.6 441
23:37:46 12 1006 0 0 O 0 96.6 447
23:40:58 12 1006 0 0 O 0 96.6 445
23:43:46 11 1006 0 0 O 0 96.6 438
23:46:48 11 1006 0 0 O 0 96.6 436
23:49:48 11 1005 0 0 O 0 96.6 428
23:52:48 11 1006 0 0 O 0 96.6 424
23:55:47 11 1006 0 0 O 0 96.6 433
23:58:49 11 1006 0 0 O 0 96.6 437

Letzte Änderung : 04-Jan-2022
Copyright Jens Köhler, Wolfsburg, Obere Dorfstraße 10d